Погода в Машезеро

Россия / Республика Карелия     61°37′17″N   34°17′36″E
темп.,
°C
ветер,
м/с
пор.,
м/с
влажн.,
%
обл.,
%
осадки,
мм/ч
давл.,
гПа
погр.,
м
21 апреля, ср
ср2100:00+2юв2763100 0.0 1019147
03:00+2вюв2370100 0.0 101777
06:00+1всв2575100 0.0 1014114
09:00+3всв3672100 0.0 1011306
12:00+1всв41095100 1.2 1008498
15:00+1всв31099100 5.0 1005400
18:00+1всв2599100 0.9 1002220
21:00+1вюв12100100 2.6 1001140
22 апреля, чт
чт2200:000юз2597100 0.4 1001470
03:000ююз3697100 0.6 1002663
06:000ююз3798100 0.4 1002443
09:00+1ююз3899100 0.9 1004346
12:00+2ююз3899100 0.4 1005355
15:00+3юз3995100 0.4 1006540
18:00+6ююз279173 0.0 1007447
21:00+1юв119951 0.0 100825
23 апреля, пт
пт2300:00+1юв269787 0.0 100892
03:00+1юв2119496 0.0 1007185
06:00+2ююв21198100 0.0 1006271
09:00+5ю2695100 0.0 1006347
12:00+5ююз2489100 1.9 1007573
15:00+8ю3570100 2.1 10071154
18:00+4юз3696100 1.2 1008849
21:00+2ююв259792 1.9 1010249
24 апреля, сб
сб2400:00+2юв2696100 0.0 1010219
03:00+1юв1297100 0.0 100958
06:00+1вюв1396100 0.0 100988
09:00+3вюв2396100 0.3 1008437
12:00+3ссв2497100 1.8 1007361
15:00+2сз2699100 4.6 1005440
18:00+2з3898100 1.9 1004368
21:00+2з3798100 2.0 1004561
25 апреля, вс
вс2500:00+2зюз2698100 0.0 1004348
03:00+1зюз3594100 0.0 1004381
06:00+1з2392100 0.0 1004383
09:00+2зсз2384100 0.0 1004478
12:00+4зсз2475100 0.0 1004827
15:00+5зсз3669100 0.1 10041210
18:00+3з3797100 2.3 1004490
21:00+2зсз4998100 5.8 1003586